,,PressureMeas_1m,,PRMeasQMR101_1,,RHStat155_1m_1,,SRMeasQMS101R_1m,,TAStat155_1m_1,,GenWind_1,,GenWind_1,
2017-06-23, 07:00:06,VALID,918.127,VALID,0.0,VALID,97.892,VALID,5.937,VALID,19.395,VALID,109.0,VALID,1.1,
2017-06-23, 07:01:06,VALID,918.137,VALID,0.0,VALID,97.869,VALID,6.255,VALID,19.383,VALID,105.0,VALID,0.945,
2017-06-23, 07:02:06,VALID,918.158,VALID,0.0,VALID,97.869,VALID,6.58,VALID,19.386,VALID,116.0,VALID,1.294,
2017-06-23, 07:03:06,VALID,918.161,VALID,0.0,VALID,97.912,VALID,6.939,VALID,19.406,VALID,123.0,VALID,1.32,
2017-06-23, 07:04:06,VALID,918.183,VALID,0.0,VALID,97.914,VALID,7.317,VALID,19.422,VALID,131.0,VALID,1.123,
2017-06-23, 07:05:06,VALID,918.192,VALID,0.0,VALID,97.858,VALID,7.704,VALID,19.424,VALID,134.0,VALID,1.048,
2017-06-23, 07:06:06,VALID,918.194,VALID,0.0,VALID,97.771,VALID,8.139,VALID,19.425,VALID,133.0,VALID,0.895,
2017-06-23, 07:07:06,VALID,918.189,VALID,0.0,VALID,97.702,VALID,8.583,VALID,19.448,VALID,128.0,VALID,1.206,
2017-06-23, 07:08:06,VALID,918.201,VALID,0.0,VALID,97.626,VALID,9.064,VALID,19.463,VALID,137.0,VALID,1.043,
2017-06-23, 07:09:06,VALID,918.202,VALID,0.0,VALID,97.543,VALID,9.551,VALID,19.48,VALID,137.0,VALID,0.848,
2017-06-23, 07:10:06,VALID,918.214,VALID,0.0,VALID,97.446,VALID,10.04,VALID,19.48,VALID,136.0,VALID,0.65,
2017-06-23, 07:11:06,VALID,918.227,VALID,0.0,VALID,97.4,VALID,10.546,VALID,19.482,VALID,135.0,VALID,0.735,
2017-06-23, 07:12:06,VALID,918.218,VALID,0.0,VALID,97.356,VALID,11.049,VALID,19.481,VALID,127.0,VALID,0.719,
2017-06-23, 07:13:06,VALID,918.233,VALID,0.0,VALID,97.351,VALID,11.566,VALID,19.493,VALID,115.0,VALID,0.557,
2017-06-23, 07:14:06,VALID,918.244,VALID,0.0,VALID,97.305,VALID,12.054,VALID,19.496,VALID,107.0,VALID,0.341,
2017-06-23, 07:15:06,VALID,918.237,VALID,0.0,VALID,97.274,VALID,12.56,VALID,19.504,VALID,105.0,VALID,0.511,
2017-06-23, 07:16:06,VALID,918.256,VALID,0.0,VALID,97.232,VALID,13.049,VALID,19.506,VALID,101.0,VALID,0.583,
2017-06-23, 07:17:06,VALID,918.284,VALID,0.0,VALID,97.243,VALID,13.524,VALID,19.517,VALID,100.0,VALID,0.359,
2017-06-23, 07:18:06,VALID,918.308,VALID,0.0,VALID,97.2,VALID,13.995,VALID,19.519,VALID,100.0,VALID,0.281,
2017-06-23, 07:19:06,VALID,918.317,VALID,0.0,VALID,97.11,VALID,14.432,VALID,19.511,VALID,100.0,VALID,0.185,
2017-06-23, 07:20:06,VALID,918.33,VALID,0.0,VALID,97.017,VALID,14.878,VALID,19.495,VALID,85.0,VALID,0.117,
2017-06-23, 07:21:06,VALID,918.323,VALID,0.0,VALID,97.086,VALID,15.304,VALID,19.509,VALID,84.0,VALID,0.058,
2017-06-23, 07:22:06,VALID,918.324,VALID,0.0,VALID,97.099,VALID,15.737,VALID,19.522,VALID,84.0,VALID,0.061,
2017-06-23, 07:23:06,VALID,918.305,VALID,0.0,VALID,97.095,VALID,16.134,VALID,19.536,VALID,76.0,VALID,0.112,
2017-06-23, 07:24:06,VALID,918.286,VALID,0.0,VALID,97.122,VALID,16.536,VALID,19.554,VALID,28.0,VALID,0.255,
2017-06-23, 07:25:06,VALID,918.285,VALID,0.0,VALID,97.118,VALID,16.964,VALID,19.575,VALID,341.0,VALID,0.412,
2017-06-23, 07:26:06,VALID,918.281,VALID,0.0,VALID,97.069,VALID,17.425,VALID,19.581,VALID,293.0,VALID,0.655,
2017-06-23, 07:27:06,VALID,918.266,VALID,0.0,VALID,97.096,VALID,17.886,VALID,19.573,VALID,288.0,VALID,0.578,
2017-06-23, 07:28:06,VALID,918.247,VALID,0.0,VALID,97.208,VALID,18.353,VALID,19.555,VALID,284.0,VALID,0.379,
2017-06-23, 07:29:06,VALID,918.237,VALID,0.0,VALID,97.326,VALID,18.848,VALID,19.571,VALID,296.0,VALID,0.23,
2017-06-23, 07:30:06,VALID,918.25,VALID,0.0,VALID,97.284,VALID,19.366,VALID,19.583,VALID,299.0,VALID,0.258,
2017-06-23, 07:31:06,VALID,918.261,VALID,0.0,VALID,97.148,VALID,19.897,VALID,19.612,VALID,298.0,VALID,0.296,
2017-06-23, 07:32:06,VALID,918.272,VALID,0.0,VALID,96.864,VALID,20.444,VALID,19.632,VALID,330.0,VALID,0.056,
2017-06-23, 07:33:06,VALID,918.286,VALID,0.0,VALID,96.754,VALID,20.969,VALID,19.667,VALID,330.0,VALID,0.0,
2017-06-23, 07:34:06,VALID,918.29,VALID,0.0,VALID,96.706,VALID,21.523,VALID,19.68,VALID,45.0,VALID,0.311,
2017-06-23, 07:35:06,VALID,918.302,VALID,0.0,VALID,96.463,VALID,22.087,VALID,19.646,VALID,62.0,VALID,0.481,
2017-06-23, 07:36:06,VALID,918.345,VALID,0.0,VALID,96.336,VALID,22.702,VALID,19.601,VALID,67.0,VALID,0.567,
2017-06-23, 07:37:06,VALID,918.385,VALID,0.0,VALID,96.439,VALID,23.307,VALID,19.579,VALID,70.0,VALID,0.245,
2017-06-23, 07:38:06,VALID,918.411,VALID,0.0,VALID,96.619,VALID,23.925,VALID,19.596,VALID,70.0,VALID,0.0,
2017-06-23, 07:39:06,VALID,918.426,VALID,0.0,VALID,96.609,VALID,24.577,VALID,19.603,VALID,70.0,VALID,0.0,
2017-06-23, 07:40:06,VALID,918.426,VALID,0.0,VALID,96.661,VALID,25.25,VALID,19.613,VALID,130.0,VALID,0.169,
2017-06-23, 07:41:06,VALID,918.426,VALID,0.0,VALID,96.649,VALID,25.925,VALID,19.612,VALID,179.0,VALID,0.561,
2017-06-23, 07:42:06,VALID,918.425,VALID,0.0,VALID,96.745,VALID,26.636,VALID,19.624,VALID,170.0,VALID,0.53,
2017-06-23, 07:43:06,VALID,918.418,VALID,0.0,VALID,96.795,VALID,27.284,VALID,19.63,VALID,167.0,VALID,0.636,
2017-06-23, 07:44:06,VALID,918.39,VALID,0.0,VALID,96.867,VALID,28.015,VALID,19.623,VALID,146.0,VALID,1.076,
2017-06-23, 07:45:06,VALID,918.382,VALID,0.0,VALID,97.036,VALID,29.029,VALID,19.592,VALID,128.0,VALID,0.843,
2017-06-23, 07:46:06,VALID,918.362,VALID,0.0,VALID,97.226,VALID,29.969,VALID,19.568,VALID,123.0,VALID,0.717,
2017-06-23, 07:47:06,VALID,918.355,VALID,0.0,VALID,97.382,VALID,30.862,VALID,19.549,VALID,120.0,VALID,0.562,
2017-06-23, 07:48:06,VALID,918.324,VALID,0.0,VALID,97.475,VALID,32.12,VALID,19.535,VALID,117.0,VALID,0.259,
2017-06-23, 07:49:06,VALID,918.287,VALID,0.0,VALID,97.529,VALID,33.427,VALID,19.521,VALID,132.0,VALID,0.439,
2017-06-23, 07:50:06,VALID,918.269,VALID,0.0,VALID,97.623,VALID,34.925,VALID,19.519,VALID,130.0,VALID,0.535,
2017-06-23, 07:51:06,VALID,918.269,VALID,0.0,VALID,97.709,VALID,36.436,VALID,19.519,VALID,111.0,VALID,0.241,
2017-06-23, 07:52:06,VALID,918.259,VALID,0.0,VALID,97.785,VALID,37.974,VALID,19.533,VALID,64.0,VALID,0.488,
2017-06-23, 07:53:06,VALID,918.25,VALID,0.0,VALID,97.748,VALID,39.601,VALID,19.517,VALID,52.0,VALID,0.851,
2017-06-23, 07:54:06,VALID,918.234,VALID,0.0,VALID,97.696,VALID,41.286,VALID,19.506,VALID,53.0,VALID,1.077,
2017-06-23, 07:55:06,VALID,918.224,VALID,0.0,VALID,97.629,VALID,43.044,VALID,19.502,VALID,44.0,VALID,0.818,
2017-06-23, 07:56:06,VALID,918.207,VALID,0.0,VALID,97.377,VALID,44.897,VALID,19.484,VALID,35.0,VALID,0.555,
2017-06-23, 07:57:06,VALID,918.19,VALID,0.0,VALID,97.228,VALID,46.859,VALID,19.532,VALID,29.0,VALID,0.143,
2017-06-23, 07:58:06,VALID,918.155,VALID,0.0,VALID,97.158,VALID,48.872,VALID,19.61,VALID,30.0,VALID,0.08,
2017-06-23, 07:59:06,VALID,918.131,VALID,0.0,VALID,96.964,VALID,51.021,VALID,19.659,VALID,15.0,VALID,0.036,
2017-06-23, 08:00:06,VALID,918.118,VALID,0.0,VALID,96.533,VALID,53.227,VALID,19.675,VALID,25.0,VALID,0.306,
2017-06-23, 08:01:06,VALID,918.105,VALID,0.0,VALID,96.301,VALID,55.518,VALID,19.693,VALID,21.0,VALID,0.563,
2017-06-23, 08:02:06,VALID,918.106,VALID,0.0,VALID,95.99,VALID,57.789,VALID,19.7,VALID,28.0,VALID,0.604,
2017-06-23, 08:03:06,VALID,918.084,VALID,0.0,VALID,95.55,VALID,60.048,VALID,19.693,VALID,22.0,VALID,0.496,
2017-06-23, 08:04:06,VALID,918.085,VALID,0.0,VALID,95.806,VALID,62.23,VALID,19.739,VALID,26.0,VALID,0.119,
2017-06-23, 08:05:06,VALID,918.083,VALID,0.0,VALID,95.787,VALID,64.32,VALID,19.778,VALID,12.0,VALID,0.251,
2017-06-23, 08:06:06,VALID,918.076,VALID,0.0,VALID,95.641,VALID,66.258,VALID,19.786,VALID,46.0,VALID,0.358,
2017-06-23, 08:07:06,VALID,918.071,VALID,0.0,VALID,95.788,VALID,68.11,VALID,19.792,VALID,70.0,VALID,0.527,
2017-06-23, 08:08:06,VALID,918.083,VALID,0.0,VALID,95.655,VALID,69.815,VALID,19.77,VALID,88.0,VALID,0.395,
2017-06-23, 08:09:06,VALID,918.108,VALID,0.0,VALID,95.696,VALID,71.276,VALID,19.753,VALID,104.0,VALID,0.379,
2017-06-23, 08:10:06,VALID,918.116,VALID,0.0,VALID,95.993,VALID,72.469,VALID,19.764,VALID,115.0,VALID,0.481,
2017-06-23, 08:11:06,VALID,918.123,VALID,0.0,VALID,95.748,VALID,73.415,VALID,19.755,VALID,123.0,VALID,0.595,
2017-06-23, 08:12:06,VALID,918.13,VALID,0.0,VALID,95.699,VALID,74.152,VALID,19.786,VALID,136.0,VALID,0.507,
2017-06-23, 08:13:06,VALID,918.132,VALID,0.0,VALID,96.072,VALID,74.783,VALID,19.858,VALID,144.0,VALID,0.779,
2017-06-23, 08:14:06,VALID,918.126,VALID,0.0,VALID,96.35,VALID,75.278,VALID,19.868,VALID,151.0,VALID,1.051,
2017-06-23, 08:15:06,VALID,918.136,VALID,0.0,VALID,96.541,VALID,75.836,VALID,19.842,VALID,149.0,VALID,0.843,
2017-06-23, 08:16:06,VALID,918.131,VALID,0.0,VALID,96.677,VALID,76.304,VALID,19.81,VALID,156.0,VALID,0.896,
2017-06-23, 08:17:06,VALID,918.133,VALID,0.0,VALID,96.779,VALID,76.695,VALID,19.812,VALID,161.0,VALID,0.506,
2017-06-23, 08:18:06,VALID,918.129,VALID,0.0,VALID,96.755,VALID,77.088,VALID,19.808,VALID,152.0,VALID,0.664,
2017-06-23, 08:19:06,VALID,918.122,VALID,0.0,VALID,96.774,VALID,77.4,VALID,19.838,VALID,172.0,VALID,0.563,
2017-06-23, 08:20:06,VALID,918.128,VALID,0.0,VALID,96.899,VALID,77.742,VALID,19.881,VALID,164.0,VALID,0.495,
2017-06-23, 08:21:06,VALID,918.147,VALID,0.0,VALID,96.793,VALID,78.108,VALID,19.892,VALID,163.0,VALID,0.605,
2017-06-23, 08:22:06,VALID,918.161,VALID,0.0,VALID,96.789,VALID,77.657,VALID,19.892,VALID,160.0,VALID,0.814,
2017-06-23, 08:23:06,VALID,918.182,VALID,0.0,VALID,96.75,VALID,77.912,VALID,19.856,VALID,159.0,VALID,0.68,
2017-06-23, 08:24:06,VALID,918.185,VALID,0.0,VALID,97.062,VALID,78.884,VALID,19.865,VALID,176.0,VALID,0.671,
2017-06-23, 08:25:06,VALID,918.202,VALID,0.0,VALID,96.977,VALID,79.621,VALID,19.83,VALID,170.0,VALID,0.884,
2017-06-23, 08:26:06,VALID,918.201,VALID,0.0,VALID,96.819,VALID,81.086,VALID,19.764,VALID,147.0,VALID,0.98,
2017-06-23, 08:27:06,VALID,918.19,VALID,0.0,VALID,96.958,VALID,82.886,VALID,19.743,VALID,141.0,VALID,0.922,
2017-06-23, 08:28:06,VALID,918.187,VALID,0.0,VALID,97.021,VALID,85.322,VALID,19.708,VALID,146.0,VALID,1.499,
2017-06-23, 08:29:06,VALID,918.187,VALID,0.0,VALID,97.124,VALID,87.027,VALID,19.711,VALID,142.0,VALID,1.097,
2017-06-23, 08:30:06,VALID,918.18,VALID,0.0,VALID,97.201,VALID,88.849,VALID,19.736,VALID,128.0,VALID,1.149,
2017-06-23, 08:31:06,VALID,918.181,VALID,0.0,VALID,97.039,VALID,90.826,VALID,19.735,VALID,133.0,VALID,1.3,
2017-06-23, 08:32:06,VALID,918.186,VALID,0.0,VALID,96.944,VALID,92.954,VALID,19.762,VALID,126.0,VALID,1.318,
2017-06-23, 08:33:06,VALID,918.173,VALID,0.0,VALID,96.916,VALID,95.155,VALID,19.812,VALID,122.0,VALID,1.111,
2017-06-23, 08:34:06,VALID,918.191,VALID,0.0,VALID,96.74,VALID,97.365,VALID,19.845,VALID,135.0,VALID,1.386,
2017-06-23, 08:35:06,VALID,918.194,VALID,0.0,VALID,96.135,VALID,99.459,VALID,19.866,VALID,143.0,VALID,1.399,
2017-06-23, 08:36:06,VALID,918.203,VALID,0.0,VALID,95.869,VALID,101.424,VALID,19.919,VALID,150.0,VALID,1.404,
2017-06-23, 08:37:06,VALID,918.202,VALID,0.0,VALID,95.574,VALID,103.238,VALID,19.945,VALID,149.0,VALID,1.39,
2017-06-23, 08:38:06,VALID,918.185,VALID,0.0,VALID,95.527,VALID,104.965,VALID,19.974,VALID,151.0,VALID,1.204,
2017-06-23, 08:39:06,VALID,918.174,VALID,0.0,VALID,95.376,VALID,106.614,VALID,19.999,VALID,147.0,VALID,0.889,
2017-06-23, 08:40:06,VALID,918.151,VALID,0.0,VALID,95.522,VALID,108.299,VALID,20.03,VALID,138.0,VALID,0.885,
2017-06-23, 08:41:06,VALID,918.144,VALID,0.0,VALID,95.322,VALID,110.136,VALID,20.055,VALID,129.0,VALID,0.992,
2017-06-23, 08:42:06,VALID,918.126,VALID,0.0,VALID,95.257,VALID,112.106,VALID,20.099,VALID,127.0,VALID,0.919,
2017-06-23, 08:43:06,VALID,918.121,VALID,0.0,VALID,95.327,VALID,114.31,VALID,20.139,VALID,132.0,VALID,0.719,
2017-06-23, 08:44:06,VALID,918.13,VALID,0.0,VALID,95.31,VALID,116.705,VALID,20.17,VALID,130.0,VALID,0.762,
2017-06-23, 08:45:06,VALID,918.131,VALID,0.0,VALID,95.197,VALID,119.201,VALID,20.213,VALID,141.0,VALID,0.625,
2017-06-23, 08:46:06,VALID,918.13,VALID,0.0,VALID,95.024,VALID,121.711,VALID,20.259,VALID,137.0,VALID,0.741,
2017-06-23, 08:47:06,VALID,918.151,VALID,0.0,VALID,94.804,VALID,124.002,VALID,20.309,VALID,142.0,VALID,0.962,
2017-06-23, 08:48:06,VALID,918.153,VALID,0.0,VALID,94.428,VALID,126.011,VALID,20.343,VALID,141.0,VALID,0.964,
2017-06-23, 08:49:06,VALID,918.171,VALID,0.0,VALID,94.559,VALID,127.644,VALID,20.387,VALID,154.0,VALID,1.183,
2017-06-23, 08:50:06,VALID,918.199,VALID,0.0,VALID,94.041,VALID,128.91,VALID,20.358,VALID,150.0,VALID,1.72,
2017-06-23, 08:51:06,VALID,918.213,VALID,0.0,VALID,94.37,VALID,129.782,VALID,20.3,VALID,148.0,VALID,1.633,
2017-06-23, 08:52:06,VALID,918.204,VALID,0.0,VALID,94.895,VALID,130.289,VALID,20.25,VALID,164.0,VALID,1.345,
2017-06-23, 08:53:06,VALID,918.201,VALID,0.0,VALID,95.411,VALID,130.497,VALID,20.258,VALID,160.0,VALID,1.138,
2017-06-23, 08:54:06,VALID,918.193,VALID,0.0,VALID,95.523,VALID,130.426,VALID,20.249,VALID,150.0,VALID,1.18,
2017-06-23, 08:55:06,VALID,918.182,VALID,0.0,VALID,95.621,VALID,130.121,VALID,20.219,VALID,142.0,VALID,1.328,
2017-06-23, 08:56:06,VALID,918.178,VALID,0.0,VALID,95.641,VALID,129.687,VALID,20.19,VALID,142.0,VALID,1.415,
2017-06-23, 08:57:06,VALID,918.171,VALID,0.0,VALID,95.805,VALID,129.182,VALID,20.208,VALID,143.0,VALID,1.141,
2017-06-23, 08:58:06,VALID,918.16,VALID,0.0,VALID,95.474,VALID,128.702,VALID,20.231,VALID,146.0,VALID,1.255,
2017-06-23, 08:59:06,VALID,918.144,VALID,0.0,VALID,95.414,VALID,128.31,VALID,20.285,VALID,155.0,VALID,1.155,
2017-06-23, 09:00:06,VALID,918.137,VALID,0.0,VALID,95.372,VALID,128.037,VALID,20.354,VALID,159.0,VALID,0.991,
